Lid_Strength_Index
4 4 5 4 4 5 5 5 4 4 4 4 4 4 4 3 3 3 3 4 4 4 4 4 4 4 4 6 6 2 2 2 4 4 4 5 7 7 6 6 5 6 5 4 4 4 4
4 4 4 4 5 4 4 4 4 4 4 4 4 4 3 3 3 3 3 3 3 3 3 3 3 3 5 10 4 3 3 3 3 3 4 4 6 5 5 5 5 4 4 5 4 4 4
5 5 4 4 5 5 5 4 4 4 4 4 4 4 4 4 4 4 3 3 3 3 3 3 3 3 6 8 4 4 4 4 4 4 5 4 3 5 5 6 4 4 6 5 5 4 5
4 5 5 5 5 5 4 4 4 4 4 4 4 4 4 4 4 4 4 4 4 4 3 3 3 4 8 4 3 5 4 5 4 4 4 4 3 4 5 4 5 6 6 9 6 5 4
5 5 5 5 4 5 4 4 4 4 4 4 3 3 4 4 4 4 3 4 3 3 3 3 4 5 9 3 6 4 4 6 5 4 4 4 5 6 5 8 8 7 10 9 8 5 5
5 5 4 4 5 5 5 4 4 4 4 4 4 4 4 4 4 4 4 4 3 4 3 3 4 8 6 9 7 5 4 4 5 5 6 6 6 8 8 8 11 10 9 8 9 6 6
5 4 4 4 5 5 5 4 4 4 4 4 4 4 4 4 4 4 4 4 6 6 5 7 8 8 8 6 6 7 6 6 5 6 9 6 9 10 9 8 7 8 8 8 7 6 7
5 5 5 4 4 5 5 4 4 4 4 4 4 4 4 4 4 4 4 7 7 7 10 7 8 8 7 7 10 8 6 9 8 9 8 7 10 8 7 7 7 8 8 8 7 6 7
4 4 4 4 4 4 4 4 4 4 4 4 4 3 3 2 3 3 3 4 3 3 10 9 7 8 7 7 9 9 7 8 10 9 8 9 9 6 8 8 8 8 8 8 8 7 6
4 4 4 4 4 4 4 4 4 4 4 3 2 1 1 0 2 1 2 0 -0 0 11 9 8 7 6 6 8 5 5 8 9 11 8 8 7 7 8 8 8 10 7 7 8 8 11
4 4 4 4 4 4 4 4 3 3 2 1 -0 -1 -1 -0 1 2 0 -1 -1 1 16 7 6 2 3 6 5 5 3 6 10 10 8 11 9 9 8 9 7 8 6 7 7 9 9
4 5 4 4 4 3 3 3 2 2 1 -1 -1 -1 -1 -1 -1 -0 -2 -1 1 11 15 9 6 7 6 6 5 4 5 4 5 8 8 9 6 6 8 6 6 6 7 7 7 8 12
5 5 4 4 3 3 2 2 2 1 0 -1 -1 -1 -1 -1 2 -2 -1 2 12 14 7 9 9 7 7 7 7 6 7 7 9 10 11 10 8 7 6 7 6 6 8 12 13 13 14
5 5 4 4 3 2 2 2 2 1 0 -0 -1 -0 -0 -1 -1 -1 2 8 15 9 9 7 7 7 9 7 7 7 7 9 7 8 12 11 12 8 7 8 9 8 8 12 16 14 12
5 5 4 3 2 3 2 2 2 1 1 0 0 -1 0 -1 -2 -1 6 14 11 9 7 8 7 9 9 8 8 8 8 9 8 8 14 11 11 6 6 6 6 8 10 7 10 9 11
5 5 4 3 2 3 2 2 1 1 1 1 1 1 1 -2 -2 1 8 11 9 6 6 7 11 9 11 9 10 9 9 8 8 7 8 10 12 7 6 6 6 7 6 10 10 14 15
5 4 3 2 3 3 2 2 1 1 1 1 1 3 0 -3 -1 4 10 9 7 5 5 8 9 10 9 9 9 9 9 8 8 7 6 8 11 10 7 8 9 8 9 8 8 10 13
5 4 3 3 3 3 2 2 2 1 2 1 2 6 0 -2 7 6 9 7 6 6 5 6 7 8 9 9 9 9 10 9 7 6 10 7 11 14 10 7 6 7 8 8 11 12 10
5 5 3 2 2 3 2 2 2 2 2 2 4 4 0 1 10 9 6 6 6 6 6 6 8 7 6 8 11 9 9 7 6 8 11 8 11 14 14 10 7 8 7 7 8 8 11
5 5 3 2 2 2 2 2 2 2 2 2 3 8 4 2 4 8 8 7 7 5 6 6 6 6 8 8 7 10 8 8 7 7 7 8 11 13 17 12 8 9 8 8 8 11 10
5 5 4 3 2 2 2 2 2 2 2 2 4 6 5 9 8 7 7 8 9 9 6 5 7 7 8 10 9 9 9 8 7 7 8 10 12 11 11 11 10 8 8 8 9 9 10
5 5 5 3 2 2 2 2 2 2 2 2 5 6 5 7 7 8 7 8 9 8 8 8 8 7 7 9 9 11 8 8 10 8 10 9 13 10 11 11 10 9 8 8 8 8 8
5 5 5 4 3 2 2 2 2 2 2 4 4 4 6 8 8 9 8 8 8 7 6 6 7 8 9 8 6 5 5 6 6 8 9 10 12 11 16 12 11 12 9 8 8 7 7
5 5 5 5 3 2 2 2 2 2 2 2 3 4 8 10 9 9 8 7 7 7 8 6 6 8 6 3 4 4 5 6 6 6 6 9 11 11 14 13 19 9 6 6 7 7 6
5 5 5 5 5 3 2 2 2 2 2 3 2 5 7 10 8 8 7 8 6 6 7 6 5 4 3 5 9 9 9 8 7 6 8 7 10 15 16 16 12 11 8 8 8 8 6
5 5 5 5 5 5 3 2 2 2 2 2 2 2 5 10 8 7 8 7 8 8 7 6 4 3 4 8 10 13 14 11 14 11 7 7 7 13 14 18 18 14 7 6 6 12 7
4 4 5 5 5 5 5 3 2 2 2 2 2 1 5 9 6 6 8 8 7 7 8 6 6 6 5 9 12 14 13 9 14 15 11 10 10 14 14 14 13 9 7 6 12 13 6
3 4 4 4 5 5 5 4 3 2 2 2 2 0 4 7 5 4 4 7 8 8 10 6 7 7 8 12 12 12 13 11 13 12 13 12 14 12 12 15 19 7 7 10 8 6 5
3 3 3 3 3 4 5 5 4 2 2 2 4 1 1 5 5 2 1 2 4 5 7 6 7 7 7 10 9 11 13 12 13 16 9 13 11 12 11 13 8 6 7 5 5 6 5